Regional Weather Roundup
Issued by NWS

Home | Current Version | Previous Version | Text Only | Print | Product List | Glossary On
Versions: 1 2 3 4 5 6 7 8 9 10 11 12 13 14 15 16 17 18 19 20 21 22 23 24 25 26 27 28 29 30 31 32 33 34 35 36 37 38 39 40 41 42 43 44 45 46 47 48 49 50
000
ASUS45 KBOI 052310
RWRID
WEATHER ROUNDUP FOR IDAHO
NATIONAL WEATHER SERVICE BOISE ID
500 PM MDT TUE MAY 05 2015

NOTE: "FAIR" INDICATES FEW OR NO CLOUDS BELOW 12000 FEET
WITH NO SIGNIFICANT WEATHER AND/OR OBSTRUCTIONS TO VISIBILITY

IDZ012-014-060000-
SOUTHWEST IDAHO


CITY           SKY/WX    TMP DP  RH WIND       PRES   REMARKS
BOISE          SUNNY     70  15  12 NW20G28   29.80F
CALDWELL       SUNNY     70  28  21 N18G24    29.81F
MOUNTAIN HOME  SUNNY     72  12  10 NW23G33   29.76F
$$

IDZ016-017-060000-
SOUTHCENTRAL IDAHO


CITY           SKY/WX    TMP DP  RH WIND       PRES   REMARKS
BURLEY         MOSUNNY   69  27  20 W17G29    29.75F
JEROME         PTSUNNY   69  21  16 W23G31    29.77F
TWIN FALLS     PTSUNNY   72  24  16 W23G30    29.78F
$$

IDZ019>023-060000-
SOUTHEAST IDAHO


CITY           SKY/WX    TMP DP  RH WIND       PRES   REMARKS
IDAHO FALLS    CLOUDY    67  40  37 S10       29.74F
POCATELLO      MOSUNNY   72  38  29 W22       29.74F
REXBURG        CLOUDY    66  34  30 CALM      29.74F
$$

IDZ006-010-011-018-031-032-060000-
CENTRAL IDAHO MOUNTAINS


CITY           SKY/WX    TMP DP  RH WIND       PRES   REMARKS
MCCALL         PTSUNNY   58  28  32 W9        29.85F
HAILEY         PTSUNNY   66  39  37 NW8       29.76F
STANLEY        NOT AVBL
SALMON           N/A     63  46  55 W3        29.73S
CHALLIS        MOSUNNY   67  35  30 E8        29.72F
$$

IDZ002-004-006-007-026-060000-
NORTHERN IDAHO


CITY           SKY/WX    TMP DP  RH WIND       PRES   REMARKS
LEWISTON       SUNNY     65  26  23 NW15G26   29.92F
LOWELL           N/A     68  35  29 CALM      29.89F
COEUR D`ALENE  MOSUNNY   57  25  28 W15G24    29.93F
MULLAN PASS    MOSUNNY   43  23  45 VRB5      29.92S
$$


USA.gov is the U.S. government's official web portal to all federal, state and local government web resources and services.